Regional Weather Roundup
Issued by NWS Cleveland, OH

Home | Current Version | Previous Version | Text Only | Print | Product List | Glossary On
Versions: 1 2 3 4 5 6 7 8 9 10 11 12 13 14 15 16 17 18 19 20 21 22 23 24 25 26 27 28 29 30 31 32 33 34 35 36 37 38 39 40 41 42 43 44 45 46 47 48 49 50
000
ASUS41 KCLE 122202
RWRCLE
OHIO REGIONAL WEATHER ROUNDUP
NATIONAL WEATHER SERVICE CLEVELAND, OH
600 PM EDT SAT JUL 12 2014

NOTE: "FAIR" INDICATES FEW OR NO CLOUDS BELOW 12,000 FEET WITH NO
SIGNIFICANT WEATHER AND/OR OBSTRUCTIONS TO VISIBILITY.

OHZ001>008-015>018-024>027-034-035-043-044-122300-
   NORTHWEST OHIO

CITY           SKY/WX    TMP DP  RH WIND       PRES   REMARKS
DEFIANCE       CLOUDY    81  67  62 S12       30.03R
FINDLAY        CLOUDY    84  68  58 SW12      30.03S
TOLEDO EXPRESS CLOUDY    83  67  58 S8        30.01S
TOLEDO EXEC    CLOUDY    86  64  47 S13       30.01F
LIMA           CLOUDY    82  68  62 SW12      30.06R
$$

OHZ009>014-019>023-028>033-038-089-122300-
   NORTHEAST OHIO

CITY           SKY/WX    TMP DP  RH WIND       PRES   REMARKS
CLE-HOPKINS    PTSUNNY   83  62  49 SW12      30.08F
CLE-LAKEFRONT  PTSUNNY   80  67  64 NE6       30.04F
CUY CO. ARPT   PTSUNNY   84  66  54 N6        30.08F
LORAIN-ELYRIA  CLOUDY    86  62  44 S7        30.06F
ASHTABULA      PTSUNNY   81  62  52 S6        30.09F
AKRON-CANTON   CLOUDY    83  61  47 SW12      30.10F
WOOSTER        CLOUDY    81  62  52 SW10      30.09F
MANSFIELD      PTSUNNY   82  61  48 S6        30.08F
YOUNGSTOWN     CLOUDY    81  62  52 S3        30.10F
$$

OHZ042-051>053-060>062-070>072-077>081-122300-
  SOUTHWEST OHIO

CITY           SKY/WX    TMP DP  RH WIND       PRES   REMARKS
CINC-COVINGTON CLOUDY    82  67  60 SW5       30.11F
CINC-LUNKEN    CLOUDY    83  68  60 SW9       30.09F
HAMILTON       CLOUDY    83  69  62 S8        30.08F
DAYTON         CLOUDY    82  67  60 S15G24    30.08S
WRIGHT-PAT AFB NOT AVBL
DAYTON GENERAL CLOUDY    82  68  62 SW13G23   30.07F
WILMINGTON     CLOUDY    80  67  64 S8        30.09F
$$

OHZ036-037-039>041-045>050-054>059-063>069-073>076-082>088-122300-
  CENTRAL AND SOUTHEAST OHIO

CITY           SKY/WX    TMP DP  RH WIND       PRES   REMARKS
COLUMBUS       CLOUDY    86  60  41 S13       30.07F
OSU AIRPORT    CLOUDY    83  63  50 S14       30.07F
BOLTON FIELD   SUNNY     82  66  57 S7        30.08F
RICKENBACK AFB CLOUDY    86  56  35 SW9       30.07F
NEWARK         PTSUNNY   83  61  47 S7        30.08F
MARION         PTSUNNY   82  64  54 S14       30.05F
LANCASTER      PTSUNNY   83  63  50 S7        30.09F
ZANESVILLE     PTSUNNY   81  62  52 SW3       30.10F
NEW PHILLY     PTSUNNY   82  66  58 S3        30.10F
$$



USA.gov is the U.S. government's official web portal to all federal, state and local government web resources and services.